Time,TemperatureF,DewpointF,PressureIn,WindDirection,WindDirectionDegrees,WindSpeedMPH,WindSpeedGustMPH,Humidity,HourlyPrecipIn,Conditions,Clouds,dailyrainin,SoftwareType,DateUTC
2013-06-01 00:01:00,65.7,63.6,29.71,West,278,0.0,0.0,93,0.00,,---,0.00,VWS V13.01,2013-06-01 04:01:00,
2013-06-01 00:02:00,65.7,63.6,29.71,West,278,0.0,0.0,93,0.00,,---,0.00,VWS V13.01,2013-06-01 04:02:00,
2013-06-01 00:05:00,65.6,63.5,29.71,West,278,0.0,0.0,93,0.00,,---,0.00,VWS V13.01,2013-06-01 04:05:00,
2013-06-01 00:10:00,65.6,63.5,29.71,West,278,0.0,0.0,93,0.00,,---,0.00,VWS V13.01,2013-06-01 04:10:00,
2013-06-01 00:15:00,65.4,63.3,29.71,West,278,0.0,1.0,93,0.00,,---,0.00,VWS V13.01,2013-06-01 04:15:00,
2013-06-01 00:20:00,65.1,63.0,29.71,West,277,0.0,1.0,93,0.00,,---,0.00,VWS V13.01,2013-06-01 04:20:00,
2013-06-01 00:25:00,65.1,63.0,29.71,West,277,0.0,1.0,93,0.00,,---,0.00,VWS V13.01,2013-06-01 04:25:00,
2013-06-01 00:30:00,65.0,62.9,29.71,West,278,0.0,0.0,93,0.00,,---,0.00,VWS V13.01,2013-06-01 04:30:00,
2013-06-01 00:35:00,64.9,63.1,29.72,West,277,5.0,5.0,94,0.00,,---,0.00,VWS V13.01,2013-06-01 04:35:00,
2013-06-01 00:40:00,65.1,63.3,29.75,WNW,288,0.0,16.0,94,0.00,,---,0.00,VWS V13.01,2013-06-01 04:40:00,
2013-06-01 00:45:00,65.3,63.5,29.75,WNW,286,0.0,16.0,94,0.00,,---,0.00,VWS V13.01,2013-06-01 04:45:00,
2013-06-01 00:50:00,65.4,63.6,29.75,WNW,286,0.0,16.0,94,0.00,,---,0.00,VWS V13.01,2013-06-01 04:50:00,
2013-06-01 00:55:00,65.5,63.4,29.75,WNW,286,0.0,16.0,93,0.00,,---,0.00,VWS V13.01,2013-06-01 04:55:00,
2013-06-01 01:01:00,65.6,63.5,29.75,WNW,286,0.0,0.0,93,0.00,,---,0.00,VWS V13.01,2013-06-01 05:01:00,
2013-06-01 01:06:00,65.6,63.5,29.75,WNW,286,0.0,0.0,93,0.00,,---,0.00,VWS V13.01,2013-06-01 05:06:00,
2013-06-01 01:11:00,65.6,63.5,29.74,WNW,286,0.0,1.0,93,0.00,,---,0.00,VWS V13.01,2013-06-01 05:11:00,
2013-06-01 01:16:00,65.4,63.6,29.74,WNW,286,0.0,1.0,94,0.00,,---,0.00,VWS V13.01,2013-06-01 05:16:00,
2013-06-01 01:21:00,65.2,63.4,29.74,WNW,286,0.0,1.0,94,0.00,,---,0.00,VWS V13.01,2013-06-01 05:21:00,
2013-06-01 01:26:00,65.2,63.4,29.73,WNW,286,0.0,1.0,94,0.00,,---,0.00,VWS V13.01,2013-06-01 05:26:00,
2013-06-01 01:31:00,65.0,63.2,29.73,WNW,286,0.0,0.0,94,0.00,,---,0.00,VWS V13.01,2013-06-01 05:31:00,
2013-06-01 01:36:00,64.8,63.0,29.73,WNW,286,0.0,0.0,94,0.00,,---,0.00,VWS V13.01,2013-06-01 05:36:00,
2013-06-01 01:41:00,64.6,62.8,29.73,WNW,286,0.0,0.0,94,0.00,,---,0.00,VWS V13.01,2013-06-01 05:41:00,
2013-06-01 01:46:00,64.5,62.7,29.73,WNW,286,0.0,0.0,94,0.00,,---,0.00,VWS V13.01,2013-06-01 05:46:00,
2013-06-01 01:51:00,64.5,62.7,29.73,WNW,286,0.0,0.0,94,0.00,,---,0.00,VWS V13.01,2013-06-01 05:51:00,
2013-06-01 01:56:00,64.4,62.6,29.72,WNW,286,0.0,0.0,94,0.00,,---,0.00,VWS V13.01,2013-06-01 05:56:00,
2013-06-01 02:01:00,64.3,62.5,29.72,WNW,286,0.0,0.0,94,0.00,,---,0.00,VWS V13.01,2013-06-01 06:01:00,
2013-06-01 02:06:00,64.2,62.4,29.72,WNW,286,0.0,0.0,94,0.00,,---,0.00,VWS V13.01,2013-06-01 06:06:00,
2013-06-01 02:12:00,64.0,62.2,29.72,WNW,286,0.0,0.0,94,0.00,,---,0.00,VWS V13.01,2013-06-01 06:12:00,
2013-06-01 02:17:00,63.9,62.1,29.72,WNW,286,0.0,0.0,94,0.00,,---,0.00,VWS V13.01,2013-06-01 06:17:00,
2013-06-01 02:22:00,63.7,62.0,29.72,WNW,286,0.0,0.0,94,0.00,,---,0.00,VWS V13.01,2013-06-01 06:22:00,
2013-06-01 02:27:00,63.7,62.2,29.71,WNW,286,0.0,0.0,95,0.00,,---,0.00,VWS V13.01,2013-06-01 06:27:00,
2013-06-01 02:32:00,63.6,62.2,29.71,WNW,286,0.0,0.0,95,0.00,,---,0.00,VWS V13.01,2013-06-01 06:32:00,
2013-06-01 02:37:00,63.5,62.0,29.71,WNW,286,0.0,0.0,95,0.00,,---,0.00,VWS V13.01,2013-06-01 06:37:00,
2013-06-01 02:42:00,63.3,61.8,29.70,WNW,286,0.0,0.0,95,0.00,,---,0.00,VWS V13.01,2013-06-01 06:42:00,
2013-06-01 02:47:00,63.1,61.7,29.70,WNW,286,0.0,1.0,95,0.00,,---,0.00,VWS V13.01,2013-06-01 06:47:00,
2013-06-01 02:52:00,63.0,61.5,29.70,WNW,286,0.0,1.0,95,0.00,,---,0.00,VWS V13.01,2013-06-01 06:52:00,
2013-06-01 02:57:00,62.8,61.3,29.69,WNW,286,0.0,1.0,95,0.00,,---,0.00,VWS V13.01,2013-06-01 06:57:00,
2013-06-01 03:02:00,62.6,61.5,29.69,WNW,286,0.0,0.0,96,0.00,,---,0.00,VWS V13.01,2013-06-01 07:02:00,
2013-06-01 03:07:00,62.7,61.5,29.69,WNW,286,0.0,1.0,96,0.00,,---,0.00,VWS V13.01,2013-06-01 07:07:00,
2013-06-01 03:12:00,62.7,61.5,29.68,WNW,286,0.0,1.0,96,0.00,,---,0.00,VWS V13.01,2013-06-01 07:12:00,
2013-06-01 03:17:00,62.6,61.5,29.68,WNW,286,0.0,1.0,96,0.00,,---,0.00,VWS V13.01,2013-06-01 07:17:00,
2013-06-01 03:22:00,62.6,61.5,29.68,WNW,286,0.0,1.0,96,0.00,,---,0.00,VWS V13.01,2013-06-01 07:22:00,
2013-06-01 03:27:00,62.5,61.3,29.67,WNW,286,0.0,1.0,96,0.00,,---,0.00,VWS V13.01,2013-06-01 07:27:00,
2013-06-01 03:32:00,62.4,61.2,29.67,WNW,286,0.0,0.0,96,0.00,,---,0.00,VWS V13.01,2013-06-01 07:32:00,
2013-06-01 03:38:00,62.4,61.2,29.67,WNW,286,0.0,0.0,96,0.00,,---,0.00,VWS V13.01,2013-06-01 07:38:00,
2013-06-01 03:43:00,62.4,61.2,29.68,WNW,286,0.0,0.0,96,0.00,,---,0.00,VWS V13.01,2013-06-01 07:43:00,
2013-06-01 03:48:00,62.4,61.5,29.67,WNW,286,0.0,0.0,97,0.00,,---,0.00,VWS V13.01,2013-06-01 07:48:00,
2013-06-01 03:53:00,62.4,61.5,29.67,WNW,286,0.0,0.0,97,0.00,,---,0.00,VWS V13.01,2013-06-01 07:53:00,
2013-06-01 03:58:00,62.5,61.6,29.67,WNW,286,0.0,0.0,97,0.00,,---,0.00,VWS V13.01,2013-06-01 07:58:00,
2013-06-01 04:03:00,62.6,61.7,29.67,WNW,286,0.0,0.0,97,0.00,,---,0.00,VWS V13.01,2013-06-01 08:03:00,
2013-06-01 04:08:00,62.7,61.8,29.67,WNW,286,0.0,0.0,97,0.00,,---,0.00,VWS V13.01,2013-06-01 08:08:00,
2013-06-01 04:13:00,62.7,61.8,29.67,WNW,286,0.0,0.0,97,0.00,,---,0.00,VWS V13.01,2013-06-01 08:13:00,
2013-06-01 04:18:00,62.8,61.9,29.67,WNW,286,0.0,0.0,97,0.00,,---,0.00,VWS V13.01,2013-06-01 08:18:00,
2013-06-01 04:23:00,62.7,61.8,29.67,WNW,286,0.0,0.0,97,0.00,,---,0.00,VWS V13.01,2013-06-01 08:23:00,
2013-06-01 04:28:00,62.7,61.8,29.67,WNW,286,0.0,0.0,97,0.00,,---,0.00,VWS V13.01,2013-06-01 08:28:00,
2013-06-01 04:33:00,62.6,61.7,29.67,WNW,286,0.0,0.0,97,0.00,,---,0.00,VWS V13.01,2013-06-01 08:33:00,
2013-06-01 04:38:00,62.7,61.8,29.67,WNW,286,0.0,0.0,97,0.00,,---,0.00,VWS V13.01,2013-06-01 08:38:00,
2013-06-01 04:43:00,62.5,61.6,29.66,WNW,286,0.0,0.0,97,0.00,,---,0.00,VWS V13.01,2013-06-01 08:43:00,
2013-06-01 04:48:00,62.4,61.5,29.66,WNW,286,0.0,0.0,97,0.00,,---,0.00,VWS V13.01,2013-06-01 08:48:00,
2013-06-01 04:53:00,62.5,61.6,29.66,WNW,286,0.0,0.0,97,0.00,,---,0.00,VWS V13.01,2013-06-01 08:53:00,
2013-06-01 04:58:00,62.5,61.6,29.66,WNW,286,0.0,0.0,97,0.00,,---,0.00,VWS V13.01,2013-06-01 08:58:00,
2013-06-01 05:04:00,62.7,62.1,29.66,WNW,286,0.0,0.0,98,0.00,,---,0.00,VWS V13.01,2013-06-01 09:04:00,
2013-06-01 05:09:00,62.7,62.1,29.66,WNW,286,0.0,0.0,98,0.00,,---,0.00,VWS V13.01,2013-06-01 09:09:00,
2013-06-01 05:14:00,62.8,62.2,29.67,WNW,286,0.0,0.0,98,0.00,,---,0.00,VWS V13.01,2013-06-01 09:14:00,
2013-06-01 05:19:00,62.8,62.2,29.67,WNW,286,0.0,0.0,98,0.00,,---,0.00,VWS V13.01,2013-06-01 09:19:00,
2013-06-01 05:24:00,62.9,62.3,29.67,WNW,286,0.0,0.0,98,0.00,,---,0.00,VWS V13.01,2013-06-01 09:24:00,
2013-06-01 05:29:00,62.8,61.9,29.67,WNW,286,0.0,0.0,97,0.00,,---,0.00,VWS V13.01,2013-06-01 09:29:00,
2013-06-01 05:34:00,62.8,62.2,29.67,WNW,286,0.0,0.0,98,0.00,,---,0.00,VWS V13.01,2013-06-01 09:34:00,
2013-06-01 05:39:00,62.8,62.2,29.67,WNW,286,0.0,0.0,98,0.00,,---,0.00,VWS V13.01,2013-06-01 09:39:00,
2013-06-01 05:44:00,62.8,62.2,29.67,WNW,286,0.0,0.0,98,0.00,,---,0.00,VWS V13.01,2013-06-01 09:44:00,
2013-06-01 05:49:00,62.7,62.1,29.67,WNW,286,0.0,0.0,98,0.00,,---,0.00,VWS V13.01,2013-06-01 09:49:00,
2013-06-01 05:54:00,62.8,62.2,29.67,WNW,286,0.0,0.0,98,0.00,,---,0.00,VWS V13.01,2013-06-01 09:54:00,
2013-06-01 05:59:00,62.9,62.3,29.67,WNW,286,0.0,0.0,98,0.00,,---,0.00,VWS V13.01,2013-06-01 09:59:00,
2013-06-01 06:04:00,63.0,62.4,29.67,WNW,286,0.0,0.0,98,0.00,,---,0.00,VWS V13.01,2013-06-01 10:04:00,
2013-06-01 06:09:00,63.3,62.7,29.67,WNW,286,0.0,2.0,98,0.00,,---,0.00,VWS V13.01,2013-06-01 10:09:00,
2013-06-01 06:14:00,63.5,62.9,29.67,WNW,286,1.0,4.0,98,0.00,,---,0.00,VWS V13.01,2013-06-01 10:14:00,
2013-06-01 06:20:00,63.7,63.1,29.67,WNW,286,0.0,4.0,98,0.00,,---,0.00,VWS V13.01,2013-06-01 10:20:00,
2013-06-01 06:25:00,64.3,63.7,29.67,WSW,249,3.0,8.0,98,0.00,,---,0.00,VWS V13.01,2013-06-01 10:25:00,
2013-06-01 06:30:00,65.0,64.1,29.67,WSW,249,0.0,8.0,97,0.00,,---,0.00,VWS V13.01,2013-06-01 10:30:00,
2013-06-01 06:35:00,65.6,64.1,29.67,West,269,0.0,7.0,95,0.00,,---,0.00,VWS V13.01,2013-06-01 10:35:00,
2013-06-01 06:40:00,66.1,64.0,29.67,West,269,0.0,7.0,93,0.00,,---,0.00,VWS V13.01,2013-06-01 10:40:00,
2013-06-01 06:45:00,66.5,63.8,29.67,West,271,0.0,7.0,91,0.00,,---,0.00,VWS V13.01,2013-06-01 10:45:00,
2013-06-01 06:50:00,66.7,63.7,29.67,West,271,0.0,7.0,90,0.00,,---,0.00,VWS V13.01,2013-06-01 10:50:00,
2013-06-01 06:55:00,67.0,63.7,29.67,West,275,2.0,7.0,89,0.00,,---,0.00,VWS V13.01,2013-06-01 10:55:00,
2013-06-01 07:00:00,67.4,63.4,29.67,West,272,5.0,5.0,87,0.00,,---,0.00,VWS V13.01,2013-06-01 11:00:00,
2013-06-01 07:05:00,67.9,63.6,29.67,WNW,284,6.0,7.0,86,0.00,,---,0.00,VWS V13.01,2013-06-01 11:05:00,
2013-06-01 07:10:00,68.4,64.1,29.67,West,281,0.0,9.0,86,0.00,,---,0.00,VWS V13.01,2013-06-01 11:10:00,
2013-06-01 07:15:00,68.6,63.9,29.67,WNW,297,5.0,10.0,85,0.00,,---,0.00,VWS V13.01,2013-06-01 11:15:00,
2013-06-01 07:20:00,68.7,64.0,29.67,WNW,297,5.0,10.0,85,0.00,,---,0.00,VWS V13.01,2013-06-01 11:20:00,
2013-06-01 07:25:00,68.8,64.1,29.67,West,272,10.0,14.0,85,0.00,,---,0.00,VWS V13.01,2013-06-01 11:25:00,
2013-06-01 07:30:00,69.0,63.6,29.67,West,276,0.0,2.0,83,0.00,,---,0.00,VWS V13.01,2013-06-01 11:30:00,
2013-06-01 07:36:00,69.2,64.2,29.67,NNE,13,4.0,6.0,84,0.00,,---,0.00,VWS V13.01,2013-06-01 11:36:00,
2013-06-01 07:41:00,69.3,63.9,29.67,WNW,283,5.0,10.0,83,0.00,,---,0.00,VWS V13.01,2013-06-01 11:41:00,
2013-06-01 07:46:00,69.5,63.8,29.67,West,271,3.0,10.0,82,0.00,,---,0.00,VWS V13.01,2013-06-01 11:46:00,
2013-06-01 07:51:00,69.7,64.0,29.67,WNW,292,1.0,10.0,82,0.00,,---,0.00,VWS V13.01,2013-06-01 11:51:00,
2013-06-01 07:56:00,69.9,64.2,29.67,WNW,286,4.0,10.0,82,0.00,,---,0.00,VWS V13.01,2013-06-01 11:56:00,
2013-06-01 08:01:00,70.3,64.2,29.67,WNW,296,0.0,1.0,81,0.00,,---,0.00,VWS V13.01,2013-06-01 12:01:00,
2013-06-01 08:06:00,70.6,64.8,29.67,WSW,257,10.0,12.0,82,0.00,,---,0.00,VWS V13.01,2013-06-01 12:06:00,
2013-06-01 08:11:00,70.6,64.5,29.67,WNW,283,5.0,12.0,81,0.00,,---,0.00,VWS V13.01,2013-06-01 12:11:00,
2013-06-01 08:16:00,70.7,64.9,29.67,WNW,295,2.0,12.0,82,0.00,,---,0.00,VWS V13.01,2013-06-01 12:16:00,
2013-06-01 08:21:00,70.8,65.0,29.66,West,262,0.0,12.0,82,0.00,,---,0.00,VWS V13.01,2013-06-01 12:21:00,
2013-06-01 08:26:00,71.0,65.2,29.66,West,262,0.0,12.0,82,0.00,,---,0.00,VWS V13.01,2013-06-01 12:26:00,
2013-06-01 08:31:00,71.4,65.3,29.65,West,281,6.0,7.0,81,0.00,,---,0.00,VWS V13.01,2013-06-01 12:31:00,
2013-06-01 08:36:00,71.9,65.4,29.66,WNW,291,6.0,8.0,80,0.00,,---,0.00,VWS V13.01,2013-06-01 12:36:00,
2013-06-01 08:41:00,72.2,65.7,29.66,West,261,1.0,12.0,80,0.00,,---,0.00,VWS V13.01,2013-06-01 12:41:00,
2013-06-01 08:47:00,72.2,65.3,29.66,WNW,284,3.0,12.0,79,0.00,,---,0.00,VWS V13.01,2013-06-01 12:47:00,
2013-06-01 08:52:00,72.6,66.1,29.66,WNW,295,10.0,12.0,80,0.00,,---,0.00,VWS V13.01,2013-06-01 12:52:00,
2013-06-01 08:57:00,72.8,65.9,29.66,West,277,0.0,15.0,79,0.00,,---,0.00,VWS V13.01,2013-06-01 12:57:00,
2013-06-01 09:02:00,72.7,65.4,29.66,West,273,7.0,15.0,78,0.00,,---,0.00,VWS V13.01,2013-06-01 13:02:00,
2013-06-01 09:07:00,72.8,66.3,29.66,West,279,10.0,15.0,80,0.00,,---,0.00,VWS V13.01,2013-06-01 13:07:00,
2013-06-01 09:12:00,72.8,65.9,29.65,West,275,11.0,16.0,79,0.00,,---,0.00,VWS V13.01,2013-06-01 13:12:00,
2013-06-01 09:17:00,73.0,66.5,29.65,WNW,290,6.0,19.0,80,0.00,,---,0.00,VWS V13.01,2013-06-01 13:17:00,
2013-06-01 09:22:00,73.3,66.0,29.65,WNW,300,7.0,19.0,78,0.00,,---,0.00,VWS V13.01,2013-06-01 13:22:00,
2013-06-01 09:27:00,73.3,66.8,29.65,WNW,288,7.0,19.0,80,0.00,,---,0.00,VWS V13.01,2013-06-01 13:27:00,
2013-06-01 09:32:00,73.5,67.0,29.65,WNW,290,2.0,8.0,80,0.00,,---,0.00,VWS V13.01,2013-06-01 13:32:00,
2013-06-01 09:37:00,73.7,66.4,29.65,West,272,8.0,10.0,78,0.00,,---,0.00,VWS V13.01,2013-06-01 13:37:00,
2013-06-01 09:42:00,74.2,67.3,29.65,West,277,8.0,12.0,79,0.00,,---,0.00,VWS V13.01,2013-06-01 13:42:00,
2013-06-01 09:47:00,74.3,66.6,29.64,West,259,1.0,18.0,77,0.00,,---,0.00,VWS V13.01,2013-06-01 13:47:00,
2013-06-01 09:53:00,74.6,66.9,29.64,West,267,13.0,19.0,77,0.00,,---,0.00,VWS V13.01,2013-06-01 13:53:00,
2013-06-01 09:58:00,74.6,66.9,29.64,West,281,10.0,19.0,77,0.00,,---,0.00,VWS V13.01,2013-06-01 13:58:00,
2013-06-01 10:03:00,74.9,67.6,29.64,WSW,248,5.0,13.0,78,0.00,,---,0.00,VWS V13.01,2013-06-01 14:03:00,
2013-06-01 10:08:00,75.2,67.5,29.63,WSW,248,5.0,13.0,77,0.00,,---,0.00,VWS V13.01,2013-06-01 14:08:00,
2013-06-01 10:13:00,75.4,67.7,29.63,West,277,2.0,13.0,77,0.00,,---,0.00,VWS V13.01,2013-06-01 14:13:00,
2013-06-01 10:18:00,75.9,68.2,29.62,WNW,286,6.0,13.0,77,0.00,,---,0.00,VWS V13.01,2013-06-01 14:18:00,
2013-06-01 10:23:00,76.4,67.9,29.62,West,268,7.0,13.0,75,0.00,,---,0.00,VWS V13.01,2013-06-01 14:23:00,
2013-06-01 10:28:00,76.9,68.4,29.62,West,271,5.0,13.0,75,0.00,,---,0.00,VWS V13.01,2013-06-01 14:28:00,
2013-06-01 10:33:00,77.1,68.6,29.62,WNW,288,0.0,7.0,75,0.00,,---,0.00,VWS V13.01,2013-06-01 14:33:00,
2013-06-01 10:38:00,77.3,68.4,29.61,West,274,6.0,14.0,74,0.00,,---,0.00,VWS V13.01,2013-06-01 14:38:00,
2013-06-01 10:43:00,77.5,68.2,29.61,West,272,6.0,14.0,73,0.00,,---,0.00,VWS V13.01,2013-06-01 14:43:00,
2013-06-01 10:48:00,77.8,68.1,29.61,WSW,242,0.0,14.0,72,0.00,,---,0.00,VWS V13.01,2013-06-01 14:48:00,
2013-06-01 10:53:00,78.4,69.4,29.61,SW,231,1.0,14.0,74,0.00,,---,0.00,VWS V13.01,2013-06-01 14:53:00,
2013-06-01 10:58:00,78.5,68.7,29.61,WSW,245,2.0,14.0,72,0.00,,---,0.00,VWS V13.01,2013-06-01 14:58:00,
2013-06-01 11:03:00,78.2,68.0,29.61,SSW,206,8.0,12.0,71,0.00,,---,0.00,VWS V13.01,2013-06-01 15:03:00,
2013-06-01 11:09:00,78.3,68.5,29.61,West,281,6.0,14.0,72,0.00,,---,0.00,VWS V13.01,2013-06-01 15:09:00,
2013-06-01 11:14:00,78.7,69.3,29.61,West,273,4.0,16.0,73,0.00,,---,0.00,VWS V13.01,2013-06-01 15:14:00,
2013-06-01 11:19:00,78.5,68.3,29.61,WNW,284,7.0,24.0,71,0.00,,---,0.00,VWS V13.01,2013-06-01 15:19:00,
2013-06-01 11:24:00,78.6,68.0,29.61,WSW,250,9.0,24.0,70,0.00,,---,0.00,VWS V13.01,2013-06-01 15:24:00,
2013-06-01 11:29:00,78.6,68.4,29.61,WNW,287,20.0,24.0,71,0.00,,---,0.00,VWS V13.01,2013-06-01 15:29:00,
2013-06-01 11:34:00,78.3,67.7,29.61,West,270,2.0,18.0,70,0.00,,---,0.00,VWS V13.01,2013-06-01 15:34:00,
2013-06-01 11:39:00,78.3,68.5,29.61,West,273,4.0,18.0,72,0.00,,---,0.00,VWS V13.01,2013-06-01 15:39:00,
2013-06-01 11:44:00,78.6,69.6,29.61,West,276,10.0,18.0,74,0.00,,---,0.00,VWS V13.01,2013-06-01 15:44:00,
2013-06-01 11:49:00,78.8,69.8,29.61,West,271,15.0,18.0,74,0.00,,---,0.00,VWS V13.01,2013-06-01 15:49:00,
2013-06-01 11:54:00,79.1,68.1,29.60,SW,223,9.0,21.0,69,0.00,,---,0.00,VWS V13.01,2013-06-01 15:54:00,
2013-06-01 11:59:00,79.4,68.8,29.60,SW,233,12.0,21.0,70,0.00,,---,0.00,VWS V13.01,2013-06-01 15:59:00,
2013-06-01 12:04:00,79.0,68.0,29.60,SSW,207,6.0,21.0,69,0.00,,---,0.00,VWS V13.01,2013-06-01 16:04:00,
2013-06-01 12:09:00,78.7,68.1,29.59,West,271,5.0,21.0,70,0.00,,---,0.00,VWS V13.01,2013-06-01 16:09:00,
2013-06-01 12:14:00,78.4,68.2,29.59,West,260,5.0,21.0,71,0.00,,---,0.00,VWS V13.01,2013-06-01 16:14:00,
2013-06-01 12:19:00,78.3,68.1,29.59,West,281,4.0,21.0,71,0.00,,---,0.00,VWS V13.01,2013-06-01 16:19:00,
2013-06-01 12:25:00,78.7,69.7,29.59,WNW,286,6.0,21.0,74,0.00,,---,0.00,VWS V13.01,2013-06-01 16:25:00,
2013-06-01 12:30:00,79.5,68.9,29.58,NNW,332,5.0,21.0,70,0.00,,---,0.00,VWS V13.01,2013-06-01 16:30:00,
2013-06-01 12:35:00,80.4,70.6,29.58,West,273,9.0,12.0,72,0.00,,---,0.00,VWS V13.01,2013-06-01 16:35:00,
2013-06-01 12:40:00,80.5,69.0,29.58,West,279,4.0,23.0,68,0.00,,---,0.00,VWS V13.01,2013-06-01 16:40:00,
2013-06-01 12:45:00,80.7,70.0,29.58,WSW,248,0.0,23.0,70,0.00,,---,0.00,VWS V13.01,2013-06-01 16:45:00,
2013-06-01 12:50:00,80.7,70.0,29.58,WSW,239,6.0,23.0,70,0.00,,---,0.00,VWS V13.01,2013-06-01 16:50:00,
2013-06-01 12:55:00,80.9,69.8,29.58,West,264,11.0,23.0,69,0.00,,---,0.00,VWS V13.01,2013-06-01 16:55:00,
2013-06-01 13:00:00,81.1,68.7,29.58,West,269,0.0,0.0,66,0.00,,---,0.00,VWS V13.01,2013-06-01 17:00:00,
2013-06-01 13:05:00,81.1,69.6,29.58,West,263,10.0,21.0,68,0.00,,---,0.00,VWS V13.01,2013-06-01 17:05:00,
2013-06-01 13:10:00,80.8,69.3,29.57,West,268,9.0,21.0,68,0.00,,---,0.00,VWS V13.01,2013-06-01 17:10:00,
2013-06-01 13:15:00,80.7,69.6,29.58,WSW,249,13.0,21.0,69,0.00,,---,0.00,VWS V13.01,2013-06-01 17:15:00,
2013-06-01 13:20:00,80.8,69.3,29.58,West,271,1.0,21.0,68,0.00,,---,0.00,VWS V13.01,2013-06-01 17:20:00,
2013-06-01 13:25:00,81.4,70.3,29.58,West,273,16.0,21.0,69,0.00,,---,0.00,VWS V13.01,2013-06-01 17:25:00,
2013-06-01 13:30:00,81.7,69.2,29.57,WSW,252,11.0,11.0,66,0.00,,---,0.00,VWS V13.01,2013-06-01 17:30:00,
2013-06-01 13:35:00,81.8,70.2,29.57,West,264,11.0,15.0,68,0.00,,---,0.00,VWS V13.01,2013-06-01 17:35:00,
2013-06-01 13:40:00,82.1,70.5,29.57,West,275,11.0,18.0,68,0.00,,---,0.00,VWS V13.01,2013-06-01 17:40:00,
2013-06-01 13:46:00,82.1,70.1,29.57,WNW,300,6.0,18.0,67,0.00,,---,0.00,VWS V13.01,2013-06-01 17:46:00,
2013-06-01 13:51:00,82.1,69.2,29.57,SW,223,2.0,22.0,65,0.00,,---,0.00,VWS V13.01,2013-06-01 17:51:00,
2013-06-01 13:56:00,81.8,68.4,29.57,West,278,8.0,22.0,64,0.00,,---,0.00,VWS V13.01,2013-06-01 17:56:00,
2013-06-01 14:01:00,81.5,69.1,29.57,West,268,8.0,11.0,66,0.00,,---,0.00,VWS V13.01,2013-06-01 18:01:00,
2013-06-01 14:06:00,81.4,69.0,29.57,WNW,301,9.0,20.0,66,0.00,,---,0.00,VWS V13.01,2013-06-01 18:06:00,
2013-06-01 14:11:00,81.6,68.7,29.56,WNW,297,13.0,20.0,65,0.00,,---,0.00,VWS V13.01,2013-06-01 18:11:00,
2013-06-01 14:16:00,81.8,68.9,29.56,West,278,12.0,20.0,65,0.00,,---,0.00,VWS V13.01,2013-06-01 18:16:00,
2013-06-01 14:21:00,82.3,70.3,29.56,West,269,9.0,20.0,67,0.00,,---,0.00,VWS V13.01,2013-06-01 18:21:00,
2013-06-01 14:26:00,82.5,69.1,29.56,West,263,14.0,20.0,64,0.00,,---,0.00,VWS V13.01,2013-06-01 18:26:00,
2013-06-01 14:31:00,82.9,69.9,29.56,West,281,7.0,19.0,65,0.00,,---,0.00,VWS V13.01,2013-06-01 18:31:00,
2013-06-01 14:36:00,83.0,68.7,29.56,West,259,9.0,23.0,62,0.00,,---,0.00,VWS V13.01,2013-06-01 18:36:00,
2013-06-01 14:41:00,82.5,69.1,29.56,SW,235,6.0,25.0,64,0.00,,---,0.00,VWS V13.01,2013-06-01 18:41:00,
2013-06-01 14:46:00,82.7,69.8,29.56,ENE,78,0.0,25.0,65,0.00,,---,0.00,VWS V13.01,2013-06-01 18:46:00,
2013-06-01 14:51:00,82.8,68.9,29.56,West,264,8.0,25.0,63,0.00,,---,0.00,VWS V13.01,2013-06-01 18:51:00,
2013-06-01 14:56:00,82.7,69.8,29.56,West,272,10.0,25.0,65,0.00,,---,0.00,VWS V13.01,2013-06-01 18:56:00,
2013-06-01 15:01:00,82.8,68.9,29.56,WNW,282,7.0,12.0,63,0.00,,---,0.00,VWS V13.01,2013-06-01 19:01:00,
2013-06-01 15:06:00,82.5,68.6,29.56,West,263,8.0,18.0,63,0.00,,---,0.00,VWS V13.01,2013-06-01 19:06:00,
2013-06-01 15:12:00,82.2,68.4,29.56,West,279,5.0,19.0,63,0.00,,---,0.00,VWS V13.01,2013-06-01 19:12:00,
2013-06-01 15:17:00,81.8,68.0,29.55,WSW,252,4.0,23.0,63,0.00,,---,0.00,VWS V13.01,2013-06-01 19:17:00,
2013-06-01 15:22:00,81.9,69.9,29.55,West,281,12.0,23.0,67,0.00,,---,0.00,VWS V13.01,2013-06-01 19:22:00,
2013-06-01 15:27:00,82.9,69.0,29.55,WSW,247,7.0,23.0,63,0.00,,---,0.00,VWS V13.01,2013-06-01 19:27:00,
2013-06-01 15:32:00,83.4,69.5,29.55,WNW,300,12.0,22.0,63,0.00,,---,0.00,VWS V13.01,2013-06-01 19:32:00,
2013-06-01 15:37:00,83.2,68.4,29.54,WNW,285,13.0,24.0,61,0.00,,---,0.00,VWS V13.01,2013-06-01 19:37:00,
2013-06-01 15:42:00,82.9,68.6,29.55,West,263,10.0,24.0,62,0.00,,---,0.00,VWS V13.01,2013-06-01 19:42:00,
2013-06-01 15:47:00,82.5,68.6,29.55,West,280,14.0,24.0,63,0.00,,---,0.00,VWS V13.01,2013-06-01 19:47:00,
2013-06-01 15:52:00,82.6,68.3,29.55,West,267,15.0,24.0,62,0.00,,---,0.00,VWS V13.01,2013-06-01 19:52:00,
2013-06-01 15:57:00,83.2,69.3,29.54,WSW,246,15.0,24.0,63,0.00,,---,0.00,VWS V13.01,2013-06-01 19:57:00,
2013-06-01 16:02:00,83.4,69.0,29.54,West,280,16.0,26.0,62,0.00,,---,0.00,VWS V13.01,2013-06-01 20:02:00,
2013-06-01 16:07:00,83.1,68.3,29.54,West,274,14.0,26.0,61,0.00,,---,0.00,VWS V13.01,2013-06-01 20:07:00,
2013-06-01 16:12:00,82.9,68.1,29.53,West,264,6.0,27.0,61,0.00,,---,0.00,VWS V13.01,2013-06-01 20:12:00,
2013-06-01 16:17:00,83.3,69.4,29.53,South,178,9.0,27.0,63,0.00,,---,0.00,VWS V13.01,2013-06-01 20:17:00,
2013-06-01 16:22:00,83.6,69.2,29.53,WNW,302,1.0,27.0,62,0.00,,---,0.00,VWS V13.01,2013-06-01 20:22:00,
2013-06-01 16:27:00,83.9,69.5,29.53,SW,227,2.0,27.0,62,0.00,,---,0.00,VWS V13.01,2013-06-01 20:27:00,
2013-06-01 16:33:00,84.2,70.2,29.53,West,263,5.0,20.0,63,0.00,,---,0.00,VWS V13.01,2013-06-01 20:33:00,
2013-06-01 16:38:00,83.6,67.8,29.53,WSW,241,4.0,25.0,59,0.00,,---,0.00,VWS V13.01,2013-06-01 20:38:00,
2013-06-01 16:43:00,83.1,67.3,29.52,SW,216,6.0,25.0,59,0.00,,---,0.00,VWS V13.01,2013-06-01 20:43:00,
2013-06-01 16:48:00,83.2,68.8,29.52,West,268,12.0,25.0,62,0.00,,---,0.00,VWS V13.01,2013-06-01 20:48:00,
2013-06-01 16:53:00,83.2,68.4,29.52,West,281,6.0,25.0,61,0.00,,---,0.00,VWS V13.01,2013-06-01 20:53:00,
2013-06-01 16:58:00,83.0,68.2,29.52,West,273,15.0,25.0,61,0.00,,---,0.00,VWS V13.01,2013-06-01 20:58:00,
2013-06-01 17:03:00,82.8,67.5,29.52,NW,325,4.0,23.0,60,0.00,,---,0.00,VWS V13.01,2013-06-01 21:03:00,
2013-06-01 17:08:00,82.5,68.2,29.52,West,262,10.0,23.0,62,0.00,,---,0.00,VWS V13.01,2013-06-01 21:08:00,
2013-06-01 17:13:00,82.3,67.5,29.52,West,260,7.0,23.0,61,0.00,,---,0.00,VWS V13.01,2013-06-01 21:13:00,
2013-06-01 17:18:00,82.6,68.3,29.51,WSW,250,14.0,23.0,62,0.00,,---,0.00,VWS V13.01,2013-06-01 21:18:00,
2013-06-01 17:23:00,82.4,68.1,29.52,SW,233,6.0,23.0,62,0.00,,---,0.00,VWS V13.01,2013-06-01 21:23:00,
2013-06-01 17:28:00,82.3,68.0,29.52,SW,229,5.0,23.0,62,0.00,,---,0.00,VWS V13.01,2013-06-01 21:28:00,
2013-06-01 17:33:00,82.0,67.7,29.52,WNW,282,0.0,12.0,62,0.00,,---,0.00,VWS V13.01,2013-06-01 21:33:00,
2013-06-01 17:38:00,81.9,68.5,29.52,West,264,4.0,12.0,64,0.00,,---,0.00,VWS V13.01,2013-06-01 21:38:00,
2013-06-01 17:43:00,81.9,68.5,29.52,West,279,11.0,12.0,64,0.00,,---,0.00,VWS V13.01,2013-06-01 21:43:00,
2013-06-01 17:48:00,81.9,68.1,29.51,West,275,8.0,16.0,63,0.00,,---,0.00,VWS V13.01,2013-06-01 21:48:00,
2013-06-01 17:53:00,82.1,68.3,29.51,West,264,8.0,19.0,63,0.00,,---,0.00,VWS V13.01,2013-06-01 21:53:00,
2013-06-01 17:59:00,82.3,68.5,29.51,West,277,8.0,21.0,63,0.00,,---,0.00,VWS V13.01,2013-06-01 21:59:00,
2013-06-01 18:04:00,82.3,68.5,29.51,WSW,253,8.0,19.0,63,0.00,,---,0.00,VWS V13.01,2013-06-01 22:04:00,
2013-06-01 18:09:00,82.0,68.2,29.51,West,272,9.0,19.0,63,0.00,,---,0.00,VWS V13.01,2013-06-01 22:09:00,
2013-06-01 18:14:00,81.6,68.2,29.51,WSW,238,11.0,19.0,64,0.00,,---,0.00,VWS V13.01,2013-06-01 22:14:00,
2013-06-01 18:19:00,81.2,67.9,29.51,West,264,4.0,19.0,64,0.00,,---,0.00,VWS V13.01,2013-06-01 22:19:00,
2013-06-01 18:24:00,80.9,67.6,29.51,WNW,293,7.0,19.0,64,0.00,,---,0.00,VWS V13.01,2013-06-01 22:24:00,
2013-06-01 18:29:00,80.9,67.6,29.51,WNW,285,7.0,19.0,64,0.00,,---,0.00,VWS V13.01,2013-06-01 22:29:00,
2013-06-01 18:34:00,80.9,67.6,29.51,West,267,1.0,14.0,64,0.00,,---,0.00,VWS V13.01,2013-06-01 22:34:00,
2013-06-01 18:39:00,80.9,67.6,29.51,West,281,8.0,20.0,64,0.00,,---,0.00,VWS V13.01,2013-06-01 22:39:00,
2013-06-01 18:44:00,80.5,67.7,29.52,West,267,8.0,20.0,65,0.00,,---,0.00,VWS V13.01,2013-06-01 22:44:00,
2013-06-01 18:49:00,80.3,67.5,29.52,WSW,254,5.0,20.0,65,0.00,,---,0.00,VWS V13.01,2013-06-01 22:49:00,
2013-06-01 18:54:00,80.4,68.0,29.52,West,271,5.0,20.0,66,0.00,,---,0.00,VWS V13.01,2013-06-01 22:54:00,
2013-06-01 18:59:00,80.5,68.5,29.52,West,271,7.0,20.0,67,0.00,,---,0.00,VWS V13.01,2013-06-01 22:59:00,
2013-06-01 19:04:00,80.4,68.0,29.52,West,267,4.0,12.0,66,0.00,,---,0.00,VWS V13.01,2013-06-01 23:04:00,
2013-06-01 19:09:00,80.3,68.3,29.51,West,275,7.0,12.0,67,0.00,,---,0.00,VWS V13.01,2013-06-01 23:09:00,
2013-06-01 19:15:00,80.3,67.9,29.52,West,275,2.0,12.0,66,0.00,,---,0.00,VWS V13.01,2013-06-01 23:15:00,
2013-06-01 19:20:00,80.0,68.1,29.52,West,274,4.0,12.0,67,0.00,,---,0.00,VWS V13.01,2013-06-01 23:20:00,
2013-06-01 19:25:00,79.8,67.9,29.52,West,267,6.0,13.0,67,0.00,,---,0.00,VWS V13.01,2013-06-01 23:25:00,
2013-06-01 19:30:00,79.7,67.8,29.52,West,261,6.0,14.0,67,0.00,,---,0.00,VWS V13.01,2013-06-01 23:30:00,
2013-06-01 19:35:00,79.8,67.9,29.51,West,277,7.0,12.0,67,0.00,,---,0.00,VWS V13.01,2013-06-01 23:35:00,
2013-06-01 19:40:00,79.7,67.8,29.51,West,277,2.0,12.0,67,0.00,,---,0.00,VWS V13.01,2013-06-01 23:40:00,
2013-06-01 19:45:00,79.6,68.5,29.52,West,278,4.0,12.0,69,0.00,,---,0.00,VWS V13.01,2013-06-01 23:45:00,
2013-06-01 19:50:00,79.4,68.3,29.51,West,278,3.0,12.0,69,0.00,,---,0.00,VWS V13.01,2013-06-01 23:50:00,
2013-06-01 19:55:00,78.8,68.2,29.52,West,281,0.0,12.0,70,0.00,,---,0.00,VWS V13.01,2013-06-01 23:55:00,
2013-06-01 20:00:00,78.8,68.2,29.52,SW,231,2.0,3.0,70,0.00,,---,0.00,VWS V13.01,2013-06-02 00:00:00,
2013-06-01 20:05:00,78.7,68.9,29.52,SW,236,1.0,6.0,72,0.00,,---,0.00,VWS V13.01,2013-06-02 00:05:00,
2013-06-01 20:10:00,78.3,68.1,29.52,West,260,2.0,7.0,71,0.00,,---,0.00,VWS V13.01,2013-06-02 00:10:00,
2013-06-01 20:15:00,77.7,68.4,29.52,West,260,0.0,7.0,73,0.00,,---,0.00,VWS V13.01,2013-06-02 00:15:00,
2013-06-01 20:20:00,77.6,67.9,29.52,West,260,7.0,7.0,72,0.00,,---,0.00,VWS V13.01,2013-06-02 00:20:00,
2013-06-01 20:26:00,77.4,68.1,29.52,West,260,2.0,7.0,73,0.00,,---,0.00,VWS V13.01,2013-06-02 00:26:00,
2013-06-01 20:31:00,76.9,67.2,29.52,West,266,0.0,6.0,72,0.00,,---,0.00,VWS V13.01,2013-06-02 00:31:00,
2013-06-01 20:36:00,76.3,67.8,29.52,West,266,0.0,6.0,75,0.00,,---,0.00,VWS V13.01,2013-06-02 00:36:00,
2013-06-01 20:41:00,75.7,67.2,29.52,West,265,0.0,6.0,75,0.00,,---,0.00,VWS V13.01,2013-06-02 00:41:00,
2013-06-01 20:46:00,75.1,67.4,29.52,West,266,0.0,6.0,77,0.00,,---,0.00,VWS V13.01,2013-06-02 00:46:00,
2013-06-01 20:51:00,74.5,67.2,29.51,West,265,2.0,6.0,78,0.00,,---,0.00,VWS V13.01,2013-06-02 00:51:00,
2013-06-01 20:56:00,74.3,67.0,29.52,West,266,2.0,6.0,78,0.00,,---,0.00,VWS V13.01,2013-06-02 00:56:00,
2013-06-01 21:01:00,74.6,67.3,29.52,West,266,1.0,2.0,78,0.00,,---,0.00,VWS V13.01,2013-06-02 01:01:00,
2013-06-01 21:06:00,74.2,67.3,29.52,West,266,0.0,2.0,79,0.00,,---,0.00,VWS V13.01,2013-06-02 01:06:00,
2013-06-01 21:11:00,73.9,67.0,29.51,West,266,0.0,2.0,79,0.00,,---,0.00,VWS V13.01,2013-06-02 01:11:00,
2013-06-01 21:16:00,73.3,67.1,29.51,West,266,0.0,2.0,81,0.00,,---,0.00,VWS V13.01,2013-06-02 01:16:00,
2013-06-01 21:21:00,72.7,66.9,29.51,West,265,0.0,3.0,82,0.00,,---,0.00,VWS V13.01,2013-06-02 01:21:00,
2013-06-01 21:26:00,72.4,66.6,29.51,West,266,0.0,3.0,82,0.00,,---,0.00,VWS V13.01,2013-06-02 01:26:00,
2013-06-01 21:31:00,72.0,66.6,29.51,West,266,1.0,1.0,83,0.00,,---,0.00,VWS V13.01,2013-06-02 01:31:00,
2013-06-01 21:36:00,71.7,66.3,29.51,West,265,0.0,2.0,83,0.00,,---,0.00,VWS V13.01,2013-06-02 01:36:00,
2013-06-01 21:42:00,71.3,66.2,29.51,West,266,0.0,2.0,84,0.00,,---,0.00,VWS V13.01,2013-06-02 01:42:00,
2013-06-01 21:47:00,70.9,66.2,29.51,West,266,0.0,2.0,85,0.00,,---,0.00,VWS V13.01,2013-06-02 01:47:00,
2013-06-01 21:52:00,70.5,66.1,29.51,West,266,0.0,2.0,86,0.00,,---,0.00,VWS V13.01,2013-06-02 01:52:00,
2013-06-01 21:57:00,70.2,66.2,29.51,West,266,0.0,2.0,87,0.00,,---,0.00,VWS V13.01,2013-06-02 01:57:00,
2013-06-01 22:02:00,69.9,65.9,29.51,West,265,1.0,1.0,87,0.00,,---,0.00,VWS V13.01,2013-06-02 02:02:00,
2013-06-01 22:07:00,69.6,65.9,29.50,West,266,0.0,1.0,88,0.00,,---,0.00,VWS V13.01,2013-06-02 02:07:00,
2013-06-01 22:12:00,69.4,65.7,29.50,West,266,0.0,2.0,88,0.00,,---,0.00,VWS V13.01,2013-06-02 02:12:00,
2013-06-01 22:17:00,69.3,65.6,29.50,West,266,1.0,2.0,88,0.00,,---,0.00,VWS V13.01,2013-06-02 02:17:00,
2013-06-01 22:22:00,69.1,65.7,29.50,West,266,0.0,2.0,89,0.00,,---,0.00,VWS V13.01,2013-06-02 02:22:00,
2013-06-01 22:27:00,68.9,65.5,29.50,West,266,0.0,2.0,89,0.00,,---,0.00,VWS V13.01,2013-06-02 02:27:00,
2013-06-01 22:32:00,68.7,65.3,29.50,West,265,1.0,1.0,89,0.00,,---,0.00,VWS V13.01,2013-06-02 02:32:00,
2013-06-01 22:37:00,68.5,65.5,29.49,West,266,0.0,1.0,90,0.00,,---,0.00,VWS V13.01,2013-06-02 02:37:00,
2013-06-01 22:42:00,68.3,65.3,29.49,West,266,0.0,2.0,90,0.00,,---,0.00,VWS V13.01,2013-06-02 02:42:00,
2013-06-01 22:47:00,68.2,65.5,29.49,West,265,2.0,4.0,91,0.00,,---,0.00,VWS V13.01,2013-06-02 02:47:00,
2013-06-01 22:52:00,68.1,65.4,29.49,West,266,1.0,4.0,91,0.00,,---,0.00,VWS V13.01,2013-06-02 02:52:00,
2013-06-01 22:57:00,67.9,65.2,29.49,West,266,0.0,4.0,91,0.00,,---,0.00,VWS V13.01,2013-06-02 02:57:00,
2013-06-01 23:02:00,67.9,65.2,29.49,West,266,0.0,3.0,91,0.00,,---,0.00,VWS V13.01,2013-06-02 03:02:00,
2013-06-01 23:08:00,68.0,65.3,29.49,West,266,0.0,3.0,91,0.00,,---,0.00,VWS V13.01,2013-06-02 03:08:00,
2013-06-01 23:13:00,68.0,65.3,29.49,West,266,0.0,3.0,91,0.00,,---,0.00,VWS V13.01,2013-06-02 03:13:00,
2013-06-01 23:18:00,68.1,65.4,29.49,West,266,0.0,3.0,91,0.00,,---,0.00,VWS V13.01,2013-06-02 03:18:00,
2013-06-01 23:23:00,68.2,65.5,29.48,West,265,0.0,4.0,91,0.00,,---,0.00,VWS V13.01,2013-06-02 03:23:00,
2013-06-01 23:28:00,68.4,65.7,29.48,West,266,1.0,4.0,91,0.00,,---,0.00,VWS V13.01,2013-06-02 03:28:00,
2013-06-01 23:33:00,68.5,65.8,29.48,West,266,4.0,4.0,91,0.00,,---,0.00,VWS V13.01,2013-06-02 03:33:00,
2013-06-01 23:38:00,68.5,65.8,29.48,West,266,0.0,4.0,91,0.00,,---,0.00,VWS V13.01,2013-06-02 03:38:00,
2013-06-01 23:43:00,68.7,65.7,29.48,West,266,0.0,4.0,90,0.00,,---,0.00,VWS V13.01,2013-06-02 03:43:00,
2013-06-01 23:48:00,68.9,65.8,29.48,West,266,1.0,4.0,90,0.00,,---,0.00,VWS V13.01,2013-06-02 03:48:00,
2013-06-01 23:53:00,69.3,65.9,29.47,West,266,0.0,4.0,89,0.00,,---,0.00,VWS V13.01,2013-06-02 03:53:00,
2013-06-01 23:58:00,69.5,66.1,29.47,West,265,0.0,4.0,89,0.00,,---,0.00,VWS V13.01,2013-06-02 03:58:00,